Home   Weather   Popayán   Past weeks
Flag for Colombia

Past Weather in Popayán, Colombia — Yesterday and Last 2 Weeks

Now
68 °F

Partly sunny.


Feels Like: 68 °F
Forecast: 70 / 57 °F
Wind: 3 mph from Northeast

Location: Cali / Alfonso Bonillaaragon

Current Time: Oct 22, 2019 at 7:02:41 am

Latest Report: Oct 22, 2019 at 6:00 am


Visibility: N/A

Pressure: 30.05 "Hg (24.48 "Hg at 1760m altitude)

Humidity: 94%

Dew Point: 66 °F

Location of PopayánLocation

Past Weather in Popayán — Graph

°F

Popayán Temperature Yesterday

Maximum temperature yesterday: 82 °F (at 2:00 pm)
Minimum temperature yesterday: 68 °F (at 3:00 am)
Average temperature yesterday: 73 °F

High & Low Weather Summary for the Past Weeks

 TemperatureHumidityPressure
High90 °F (Oct 12, 3:00 pm)100% (Oct 8, 3:00 am)30.11 "Hg (Oct 8, 3:00 am)
Low63 °F (Oct 9, 5:00 am)41% (Oct 12, 3:00 pm)29.77 "Hg (Oct 12, 4:00 pm)
Average73 °F79%29.99 "Hg
* Reported Oct 7 6:00 am — Oct 22 6:00 am, Popayán. Weather by CustomWeather, © 2019

Note: Actual official high and low records may vary slightly from our data, if they occured in-between our weather recording intervals... More about our weather records

Advertising

Popayán Weather History for the Previous 24 Hours

Scroll right to see more
 ConditionsComfort  
Time TempWeatherWind HumidityBarometerVisibility
6:00 am
Tue, Oct 22
68 °FPartly sunny.3 mph94%30.05 "HgN/A
5:30 am68 °FPassing clouds.3 mph94%30.05 "HgN/A
5:00 am68 °FPassing clouds.5 mph94%30.05 "HgN/A
4:00 am68 °FPassing clouds.2 mph94%30.04 "HgN/A
3:00 am68 °FPassing clouds.3 mph94%30.04 "HgN/A
2:00 am68 °FPassing clouds.5 mph100%30.04 "HgN/A
1:00 am68 °FScattered showers. Passing clouds.2 mph100%30.05 "Hg6 mi
12:00 am70 °FPartly cloudy.5 mph88%30.07 "Hg5 mi
11:10 pm
Mon, Oct 21
68 °FPartly cloudy.5 mph94%30.08 "Hg6 mi
11:00 pm70 °FPassing clouds.5 mph83%30.08 "HgN/A
10:00 pm72 °FPassing clouds.7 mph78%30.08 "HgN/A
9:00 pm70 °FPassing clouds.6 mph83%30.06 "HgN/A
8:00 pm72 °FPassing clouds.7 mph78%30.02 "HgN/A
7:00 pm73 °FPassing clouds.8 mph78%30.00 "HgN/A
6:00 pm73 °FPassing clouds.9 mph74%29.98 "HgN/A
5:00 pm75 °FPartly sunny.9 mph69%29.95 "HgN/A
4:00 pm81 °FPartly sunny.9 mph54%29.95 "HgN/A
3:00 pm81 °FScattered showers. Scattered clouds.13 mph62%29.95 "HgN/A
2:00 pm82 °FScattered showers. Partly sunny.15 mph48%29.98 "HgN/A
1:00 pm81 °FScattered showers. Scattered clouds.10 mph58%30.01 "Hg6 mi
12:00 pm81 °FScattered clouds.12 mph58%30.04 "HgN/A
11:00 am81 °FBroken clouds.7 mph66%30.08 "HgN/A
10:00 am77 °FBroken clouds.3 mph69%30.10 "HgN/A
9:00 am77 °FBroken clouds.3 mph79%30.10 "HgN/A
8:00 am72 °FBroken clouds.2 mph88%30.10 "HgN/A
7:00 am70 °FPartly sunny.2 mph94%30.08 "HgN/A
Weather by CustomWeather, © 2019

See weather overview